Zurück zum Katalog

CZ-6A DEB

AktivSSO
NORAD 56672·DEBRIS·🇨🇳 China

Gestartet Nov 11, 2022 von Taiyuan Satellite Launch Center

Loading…

Nächste Überflüge (nächste 24 Stunden)

TLE

AktuellSource: Space-Track

Epoche: Sep 14, 2026, 07:23 UTC

1 56672U 22151AGY 26257.30785185  .00000326  00000-0  28769-3 0  9992
2 56672  98.9078 203.6950 0154128 235.2544 123.4020 13.86831993176580

Verfolge CZ-6A DEB in Echtzeit mit AllMySat

Download on the App Store